This demonstration page uses our WeatherBlox Daily Observations layout. Learn more.

Left ArrowRight Arrow

39.51506, -84.39828

Hourly Observations for March 17, 2021

Temp ( °F °C ) Dew Point ( °F °C ) Humidity (%) Winds ( mph kmh ) Pressure ( in mb ) Visibility ( mi km ) Precip ( " mm )
12:15 am 00:15 Hazy 43 6 N/A N/A N 7 11 30.06 1018 7 11 N/A
12:35 am 00:35 Hazy 43 6 N/A N/A NNE 6 9 30.06 1018 7 11 N/A
12:55 am 00:55 Hazy 41 5 N/A N/A NNE 7 11 30.06 1018 5 8 N/A
1:15 am 01:15 Hazy 43 6 N/A N/A NNE 6 9 30.06 1018 7 11 N/A
1:35 am 01:35 Hazy 41 5 N/A N/A N 3 6 30.06 1018 5 8 N/A
1:55 am 01:55 Hazy 41 5 N/A N/A NNE 5 7 30.06 1018 5 8 N/A
2:15 am 02:15 Cloudy with Haze 41 5 N/A N/A N 3 6 30.06 1018 4 6 N/A
2:35 am 02:35 Cloudy with Haze 43 6 N/A N/A NE 5 7 30.07 1018 5 8 N/A
2:55 am 02:55 Cloudy with Haze 43 6 N/A N/A NE 5 7 30.08 1019 7 11 N/A
3:15 am 03:15 Cloudy with Mist and Fog 43 6.1 43 6.1 100 100 NE 7 11 30.08 1019 5 8 N/A
3:35 am 03:35 Cloudy with Mist and Fog 43 6.1 43 5.9 99 99 NE 7 11 30.09 1019 7 11 N/A
3:55 am 03:55 Cloudy with Mist and Fog 43 6.2 43 6 99 99 NNE 7 11 30.09 1019 5 8 N/A
4:15 am 04:15 Cloudy with Mist and Fog 43 6.2 43 6 99 99 NE 7 11 30.09 1019 5 8 N/A
4:35 am 04:35 Cloudy with Mist and Fog 43 6.2 42 5.7 97 97 NE 6 9 30.08 1019 7 11 N/A
4:55 am 04:55 Cloudy with Mist and Fog 43 6.1 42 5.3 95 95 ENE 6 9 30.08 1019 7 11 N/A
5:15 am 05:15 Cloudy with Mist and Fog 42 5.8 42 5.3 97 97 ENE 6 9 30.09 1019 7 11 N/A
5:35 am 05:35 Cloudy with Mist and Fog 42 5.8 42 5.3 97 97 ENE 8 13 30.09 1019 7 11 N/A
5:55 am 05:55 Cloudy with Mist and Fog 43 6 41 5.2 95 95 NE 5 7 30.10 1019 7 11 N/A
6:15 am 06:15 Cloudy with Mist and Fog 42 5.8 42 5.3 97 97 ENE 6 9 30.09 1019 7 11 N/A
6:35 am 06:35 Cloudy with Mist and Fog 42 5.6 41 5.1 97 97 ENE 3 6 30.10 1019 5 8 N/A
6:55 am 06:55 Cloudy with Mist and Fog 42 5.4 41 5 97 97 NE 8 13 30.10 1019 5 8 N/A
7:15 am 07:15 Cloudy with Mist and Fog 42 5.4 41 5 97 97 NE 8 13 30.09 1019 5 8 N/A
7:35 am 07:35 Cloudy with Mist and Fog 42 5.3 41 5 98 98 ENE 7 11 30.09 1019 4 6 N/A
7:55 am 07:55 Cloudy with Mist and Fog 41 5.2 41 5 99 99 ENE 8 13 30.09 1019 3 5 N/A
8:15 am 08:15 Cloudy with Mist and Fog 41 5 41 5 100 100 ENE 3 6 30.10 1019 2 3 N/A
8:35 am 08:35 Cloudy with Mist and Fog 41 5 N/A N/A E 3 6 30.11 1020 2 3 N/A
8:55 am 08:55 Cloudy with Mist and Fog 41 5 N/A N/A ENE 7 11 30.10 1019 2 2 N/A
9:15 am 09:15 Cloudy with Mist and Fog 41 5 N/A N/A E 8 13 30.08 1019 1 1 N/A
9:35 am 09:35 Cloudy with Mist and Fog 41 5 N/A N/A E 7 11 30.08 1019 1 2 N/A
9:55 am 09:55 Cloudy with Mist and Fog 41 5 N/A N/A E 6 9 30.07 1018 2 3 N/A
10:15 am 10:15 Cloudy with Mist and Fog 43 6 N/A N/A E 6 9 30.08 1019 4 6 N/A
10:35 am 10:35 Cloudy with Mist and Fog 43 5.9 42 5.8 99 99 ESE 6 9 30.07 1018 5 8 N/A
10:55 am 10:55 Cloudy with Mist and Fog 44 6.7 43 6.2 97 97 E 9 15 30.05 1018 5 8 N/A
11:15 am 11:15 Cloudy 45 7.1 43 6.3 95 95 SE 9 15 30.04 1017 7 11 N/A
11:35 am 11:35 Cloudy 46 7.6 44 6.5 93 93 E 7 11 30.04 1017 10 16 N/A
11:55 am 11:55 Cloudy 47 8.5 44 6.7 89 89 ESE 7 11 30.02 1017 10 16 N/A
12:15 pm 12:15 undefined 48 9 45 7 87 87 undefined N/A N/A N/A N/A
12:35 pm 12:35 undefined N/A N/A N/A undefined N/A N/A N/A N/A
12:55 pm 12:55 undefined N/A N/A N/A undefined N/A N/A N/A N/A
1:15 pm 13:15 undefined N/A N/A N/A undefined N/A N/A N/A N/A
1:35 pm 13:35 undefined N/A N/A N/A undefined N/A N/A N/A N/A
1:55 pm 13:55 undefined N/A N/A N/A undefined N/A N/A N/A N/A
2:15 pm 14:15 undefined N/A N/A N/A undefined N/A N/A N/A N/A
2:35 pm 14:35 undefined N/A N/A N/A undefined N/A N/A N/A N/A
2:55 pm 14:55 Sunny 57 13.7 47 8.3 70 70 ESE 9 15 29.95 1014 10 16 N/A
3:15 pm 15:15 Sunny 57 13.8 46 7.7 67 67 ESE 7 11 29.93 1014 10 16 N/A
3:35 pm 15:35 Sunny 58 14.5 46 7.8 64 64 ESE 6 9 29.92 1013 10 16 N/A
3:55 pm 15:55 Sunny 59 15.1 47 8.3 64 64 ESE 6 9 29.92 1013 10 16 N/A
4:15 pm 16:15 Sunny 59 15.2 47 8.2 63 63 SSE 7 11 29.92 1013 10 16 N/A
4:35 pm 16:35 Sunny 59 15.1 47 8.5 65 65 SE 10 17 29.90 1012 10 16 N/A
4:55 pm 16:55 Sunny 60 15.4 48 8.8 65 65 ESE 7 11 29.89 1012 10 16 N/A
5:15 pm 17:15 Sunny 60 15.5 48 9 65 65 SSE 7 11 29.89 1012 10 16 N/A
5:35 pm 17:35 Sunny 60 15.8 49 9.3 66 66 SSE 6 9 29.88 1012 10 16 N/A
5:55 pm 17:55 Partly Cloudy 61 15.9 49 9.5 66 66 SSE 6 9 29.88 1012 10 16 N/A
6:15 pm 18:15 Sunny 61 15.9 49 9.7 67 67 SE 5 7 29.88 1012 10 16 N/A
6:35 pm 18:35 Sunny 61 15.9 49 9.6 66 66 SSE 5 7 29.88 1012 10 16 N/A
6:55 pm 18:55 Cloudy with Light Rain 60 15.6 50 10.2 70 70 SE 6 9 29.89 1012 10 16 N/A
7:15 pm 19:15 Cloudy with Light Rain 58 14.7 52 11.2 80 80 ESE 3 6 29.88 1012 7 11 0.01 0.25
7:35 pm 19:35 Cloudy with Light Rain 57 14.1 53 11.9 87 87 ESE 6 9 29.87 1011 7 11 0.01 0.25
7:55 pm 19:55 Cloudy with Light Rain 57 14 54 12.2 89 89 ESE 6 9 29.85 1011 10 16 0.01 0.25
8:15 pm 20:15 Cloudy 57 14 54 12.2 89 89 ESE 5 7 29.85 1011 10 16 N/A
8:35 pm 20:35 Cloudy 57 14.1 53 11.9 87 87 ESE 3 6 29.83 1010 10 16 N/A
8:55 pm 20:55 Cloudy 57 13.9 54 12 88 88 SE 5 7 29.82 1010 10 16 N/A
9:15 pm 21:15 Cloudy 57 14.1 54 12 87 87 ESE 6 9 29.81 1009 10 16 N/A
9:35 pm 21:35 Cloudy 57 13.9 54 12.1 89 89 ESE 6 9 29.81 1009 10 16 N/A
9:55 pm 21:55 Cloudy 56 13.6 54 12.1 91 91 ENE 7 11 29.80 1009 10 16 N/A
10:15 pm 22:15 Cloudy 55 12.8 53 11.9 94 94 NE 5 7 29.80 1009 10 16 N/A
10:35 pm 22:35 Cloudy 55 12.5 53 11.8 96 96 N 6 9 29.78 1009 10 16 N/A
10:55 pm 22:55 Cloudy 55 12.8 53 11.9 94 94 NNW 5 7 29.78 1009 10 16 N/A
11:15 pm 23:15 Cloudy with Light Rain 55 12.7 54 12.1 96 96 N 5 7 29.79 1009 10 16 N/A
11:35 pm 23:35 Cloudy with Rain 55 12.6 54 12.3 98 98 N 7 11 29.79 1009 7 11 0.01 0.25
11:55 pm 23:55 Cloudy with Light Rain 55 13 55 13 100 100 NNE 6 9 29.78 1009 3 5 0.04 1.02

Powered by AerisWeather